• In Hungary
  • List of Countries
  • For 7 days
  • Water Temperature
  • Satellite Maps
  • Weather Map
  • News
  • Weather Widgets
  • user-avatar
    Login

    Hourly Weather Imbituva

    Today, 13 November, Tuesday

    Time Temperature Precipitation Wind Pressure Humidity
    00:00 +21°C° 0 mm 2 mps 687 mmHg 89%
    01:00 +21°C° 0 mm 2 mps 687 mmHg 89%
    02:00 +21°C° 0 mm 2 mps 687 mmHg 89%
    03:00 +20°C° 0 mm 2 mps 687 mmHg 90%
    04:00 +21°C° 0 mm 1 mps 687 mmHg 90%
    05:00 +21°C° 0 mm 1 mps 687 mmHg 91%
    06:00 +20°C° 0 mm 1 mps 687 mmHg 91%
    07:00 +23°C° 0 mm 1 mps 688 mmHg 81%
    08:00 +25°C° 0 mm 1 mps 688 mmHg 71%
    09:00 +27°C° 0 mm 2 mps 689 mmHg 62%
    10:00 +29°C° 0 mm 2 mps 689 mmHg 56%
    11:00 +31°C° 0 mm 2 mps 688 mmHg 50%
    12:00 +34°C° 0 mm 2 mps 688 mmHg 45%
    13:00 +34°C° 0 mm 2 mps 687 mmHg 46%
    14:00 +32°C° 0 mm 2 mps 687 mmHg 48%
    15:00 +32°C° 0 mm 2 mps 686 mmHg 49%
    16:00 +31°C° 0.1 mm 2 mps 686 mmHg 58%
    17:00 +29°C° 0.1 mm 1 mps 686 mmHg 66%
    18:00 +27°C° 0.1 mm 1 mps 686 mmHg 75%
    19:00 +26°C° 0.1 mm 1 mps 686 mmHg 79%
    20:00 +25°C° 0.1 mm 1 mps 686 mmHg 84%
    21:00 +24°C° 0.1 mm 1 mps 686 mmHg 89%
    22:00 +23°C° 0 mm 1 mps 686 mmHg 89%
    23:00 +23°C° 0 mm 1 mps 686 mmHg 89%

    Tomorrow, 14 November, Wednesday

    Time Temperature Precipitation Wind Pressure Humidity
    00:00 +23°C° 0 mm 1 mps 686 mmHg 90%
    01:00 +23°C° 0 mm 1 mps 685 mmHg 90%
    02:00 +23°C° 0 mm 1 mps 685 mmHg 90%
    03:00 +22°C° 0 mm 1 mps 684 mmHg 91%
    04:00 +22°C° 0 mm 1 mps 685 mmHg 92%
    05:00 +22°C° 0 mm 1 mps 685 mmHg 93%
    06:00 +22°C° 0 mm 1 mps 685 mmHg 94%
    07:00 +24°C° 0.1 mm 2 mps 685 mmHg 84%
    08:00 +26°C° 0.1 mm 2 mps 686 mmHg 75%
    09:00 +29°C° 0.1 mm 3 mps 687 mmHg 65%
    10:00 +29°C° 0.3 mm 3 mps 686 mmHg 66%
    11:00 +29°C° 0.3 mm 3 mps 686 mmHg 67%
    12:00 +29°C° 0.3 mm 3 mps 686 mmHg 67%
    13:00 +29°C° 0.2 mm 3 mps 686 mmHg 65%
    14:00 +29°C° 0.2 mm 2 mps 686 mmHg 63%
    15:00 +29°C° 0.2 mm 2 mps 686 mmHg 61%
    16:00 +28°C° 0.3 mm 2 mps 685 mmHg 70%
    17:00 +26°C° 0.3 mm 1 mps 685 mmHg 79%
    18:00 +25°C° 0.3 mm 1 mps 685 mmHg 88%
    19:00 +22°C° 0.1 mm 0 mps 685 mmHg 90%
    20:00 +21°C° 0.1 mm 0 mps 685 mmHg 92%
    21:00 +21°C° 0.1 mm 0 mps 685 mmHg 94%
    22:00 +21°C° 0 mm 0 mps 685 mmHg 95%
    23:00 +20°C° 0 mm 0 mps 685 mmHg 95%

    Day after tomorrow, 15 November, Thursday

    Time Temperature Precipitation Wind Pressure Humidity
    00:00 +20°C° 0 mm 0 mps 685 mmHg 96%
    01:00 +20°C° 0 mm 0 mps 685 mmHg 96%
    02:00 +19°C° 0 mm 0 mps 684 mmHg 97%
    03:00 +19°C° 0 mm 0 mps 684 mmHg 97%
    04:00 +19°C° 0 mm 0 mps 684 mmHg 97%
    05:00 +21°C° 0 mm 1 mps 685 mmHg 97%
    06:00 +21°C° 0 mm 1 mps 685 mmHg 97%
    07:00 +22°C° 0.2 mm 1 mps 685 mmHg 92%
    08:00 +23°C° 0.2 mm 1 mps 686 mmHg 87%
    09:00 +24°C° 0.2 mm 1 mps 686 mmHg 82%
    10:00 +25°C° 0.4 mm 1 mps 686 mmHg 77%
    11:00 +27°C° 0.4 mm 1 mps 686 mmHg 73%
    12:00 +28°C° 0.4 mm 1 mps 687 mmHg 69%
    13:00 +28°C° 1.4 mm 1 mps 686 mmHg 71%
    14:00 +28°C° 1.4 mm 1 mps 686 mmHg 73%
    15:00 +28°C° 1.4 mm 1 mps 685 mmHg 75%
    16:00 +26°C° 1.4 mm 1 mps 685 mmHg 81%
    17:00 +25°C° 1.4 mm 1 mps 685 mmHg 87%
    18:00 +24°C° 1.4 mm 1 mps 685 mmHg 92%
    19:00 +23°C° 0.1 mm 2 mps 686 mmHg 93%
    20:00 +21°C° 0.1 mm 2 mps 686 mmHg 95%
    21:00 +20°C° 0.1 mm 2 mps 687 mmHg 96%
    22:00 +19°C° 0 mm 2 mps 687 mmHg 96%
    23:00 +18°C° 0 mm 2 mps 687 mmHg 96%

    16 November, Friday

    Time Temperature Precipitation Wind Pressure Humidity
    00:00 +19°C° 0 mm 1 mps 687 mmHg 95%
    01:00 +18°C° 0 mm 1 mps 687 mmHg 95%
    02:00 +18°C° 0 mm 1 mps 686 mmHg 95%
    03:00 +18°C° 0 mm 1 mps 686 mmHg 95%
    04:00 +16°C° 0 mm 1 mps 686 mmHg 94%
    05:00 +16°C° 0 mm 1 mps 687 mmHg 93%
    06:00 +16°C° 0 mm 1 mps 687 mmHg 92%
    07:00 +19°C° 0 mm 1 mps 688 mmHg 85%
    08:00 +21°C° 0 mm 1 mps 688 mmHg 77%
    09:00 +23°C° 0 mm 1 mps 689 mmHg 70%
    10:00 +25°C° 0 mm 1 mps 689 mmHg 64%
    11:00 +28°C° 0 mm 1 mps 689 mmHg 59%
    12:00 +30°C° 0 mm 1 mps 689 mmHg 53%
    13:00 +30°C° 0.1 mm 1 mps 688 mmHg 55%
    14:00 +30°C° 0.1 mm 1 mps 688 mmHg 57%
    15:00 +29°C° 0.1 mm 1 mps 687 mmHg 59%
    16:00 +28°C° 0.3 mm 1 mps 687 mmHg 67%
    17:00 +26°C° 0.3 mm 1 mps 687 mmHg 75%
    18:00 +25°C° 0.3 mm 1 mps 687 mmHg 83%
    19:00 +24°C° 0 mm 1 mps 688 mmHg 85%
    20:00 +23°C° 0 mm 2 mps 688 mmHg 87%
    21:00 +21°C° 0 mm 2 mps 689 mmHg 89%
    22:00 +20°C° 0 mm 2 mps 689 mmHg 90%
    23:00 +19°C° 0 mm 2 mps 689 mmHg 90%

    17 November, Saturday

    Time Temperature Precipitation Wind Pressure Humidity
    00:00 +18°C° 0 mm 2 mps 689 mmHg 90%
    01:00 +18°C° 0 mm 2 mps 688 mmHg 89%
    02:00 +17°C° 0 mm 2 mps 688 mmHg 89%
    03:00 +16°C° 0 mm 2 mps 687 mmHg 89%
    04:00 +16°C° 0 mm 2 mps 688 mmHg 89%
    05:00 +16°C° 0 mm 2 mps 688 mmHg 88%
    06:00 +16°C° 0 mm 2 mps 688 mmHg 88%
    07:00 +18°C° 0 mm 2 mps 688 mmHg 81%
    08:00 +20°C° 0 mm 2 mps 689 mmHg 73%
    09:00 +24°C° 0 mm 2 mps 689 mmHg 65%
    10:00 +26°C° 0 mm 2 mps 689 mmHg 62%
    11:00 +27°C° 0 mm 2 mps 689 mmHg 59%
    12:00 +29°C° 0 mm 2 mps 689 mmHg 56%
    13:00 +29°C° 0 mm 2 mps 688 mmHg 56%
    14:00 +29°C° 0 mm 2 mps 687 mmHg 56%
    15:00 +30°C° 0 mm 2 mps 687 mmHg 56%
    16:00 +29°C° 0 mm 1 mps 686 mmHg 62%
    17:00 +28°C° 0 mm 1 mps 686 mmHg 67%
    18:00 +27°C° 0 mm 1 mps 686 mmHg 73%
    19:00 +26°C° 0 mm 1 mps 686 mmHg 78%
    20:00 +24°C° 0 mm 2 mps 686 mmHg 83%
    21:00 +23°C° 0 mm 2 mps 686 mmHg 87%
    22:00 +21°C° 0 mm 2 mps 686 mmHg 90%
    23:00 +21°C° 0 mm 1 mps 686 mmHg 93%

    18 November, Sunday

    Time Temperature Precipitation Wind Pressure Humidity
    00:00 +21°C° 0 mm 1 mps 686 mmHg 96%
    01:00 +21°C° 0 mm 1 mps 685 mmHg 96%
    02:00 +20°C° 0 mm 1 mps 685 mmHg 96%
    03:00 +20°C° 0 mm 1 mps 685 mmHg 96%
    04:00 +20°C° 0 mm 1 mps 685 mmHg 96%
    05:00 +20°C° 0 mm 1 mps 684 mmHg 95%
    06:00 +20°C° 0 mm 1 mps 684 mmHg 95%
    07:00 +22°C° 0 mm 1 mps 685 mmHg 91%
    08:00 +23°C° 0 mm 2 mps 685 mmHg 87%
    09:00 +24°C° 0 mm 2 mps 685 mmHg 83%
    10:00 +24°C° 0.1 mm 2 mps 685 mmHg 81%
    11:00 +25°C° 0.1 mm 2 mps 685 mmHg 80%
    12:00 +25°C° 0.1 mm 2 mps 685 mmHg 78%
    13:00 +25°C° 0.9 mm 2 mps 684 mmHg 82%
    14:00 +25°C° 0.9 mm 2 mps 684 mmHg 87%
    15:00 +25°C° 0.9 mm 2 mps 684 mmHg 91%
    16:00 +24°C° 2 mm 1 mps 684 mmHg 92%
    17:00 +23°C° 2 mm 1 mps 683 mmHg 94%
    18:00 +23°C° 2 mm 1 mps 683 mmHg 96%
    19:00 +22°C° 0.2 mm 1 mps 684 mmHg 97%
    20:00 +22°C° 0.2 mm 1 mps 684 mmHg 97%
    21:00 +21°C° 0.2 mm 1 mps 684 mmHg 98%
    22:00 +21°C° 0 mm 1 mps 684 mmHg 98%
    23:00 +20°C° 0 mm 1 mps 684 mmHg 98%
    Show more